DateTimeUTC,F1_A11,F1_S11,BsB_S11,BsG_S11,BsR_S11,BbsB_S11,BbsG_S11,BbsR_S11,BaB_A11,BaG_A11,BaR_A11,Tu_S11,T_S11,Uu_S11,U_S11,P_S11,T1_A11
2021-09-11T07:00:00Z,00000200,21000000,,,,,,,0000.35,0000.35,0000.23,18.6,25.7,,00.0,0667.1,31.1
2021-09-11T07:01:00Z,00000200,21000000,,,,,,,-000.40,-000.18,0000.30,18.6,25.7,,00.0,0667.1,31.1
2021-09-11T07:02:00Z,00000200,21000000,,,,,,,-000.23,0000.21,-000.36,18.6,25.8,,00.0,0667.1,31.1
2021-09-11T07:03:00Z,00000200,61000000,,,,,,,0000.37,-000.04,0000.08,18.6,25.8,,00.0,0667.1,31.1
2021-09-11T07:04:00Z,00000200,41000000,0000.26,0000.57,0000.28,-000.03,0000.20,-000.24,-000.08,-000.16,0000.11,19.1,25.7,,00.0,0668.1,31.1
2021-09-11T07:05:00Z,00000200,01000000,0000.36,0000.57,0000.14,0000.16,0000.10,-000.06,0000.18,-000.07,-000.20,19.1,25.7,,00.0,0668.1,31.1
2021-09-11T07:06:00Z,00000200,01000000,0000.79,0000.72,-000.10,0000.17,0000.18,0000.29,-000.40,0000.20,-000.23,19.1,25.6,,00.0,0668.1,31.1
2021-09-11T07:07:00Z,00000200,01000000,0000.35,0000.45,0000.20,0000.36,0000.18,-000.18,0000.17,-000.69,-000.14,19.0,25.6,,00.0,0668.0,31.0
2021-09-11T07:08:00Z,00000200,01000000,0001.08,0000.41,0000.22,0000.07,0000.07,-000.29,-000.24,0000.23,0000.07,18.9,25.5,,00.0,0668.0,31.0
2021-09-11T07:09:00Z,00000200,01000000,0000.20,0000.30,0000.38,0000.36,0000.29,0000.09,0000.26,0000.19,-000.04,18.8,25.5,,00.0,0668.0,31.0
2021-09-11T07:10:00Z,00000200,01000000,0000.50,0000.58,0000.25,-000.22,-000.07,-000.21,0000.32,-000.04,0000.26,18.7,25.4,,00.0,0668.0,31.0
2021-09-11T07:11:00Z,00000200,01000000,-000.32,0000.86,0000.53,-000.60,0000.09,0000.27,0000.13,0000.15,0000.05,18.7,25.4,,00.0,0668.0,31.0
2021-09-11T07:12:00Z,00000200,01000000,0000.03,0000.72,0000.33,0000.28,-000.00,-000.08,0000.36,0000.66,0000.34,18.6,25.3,,00.0,0668.0,31.0
2021-09-11T07:13:00Z,00000200,01000000,0000.39,0000.68,0000.25,0000.31,-000.25,-000.38,-000.01,0000.02,0000.27,18.7,25.3,,00.0,0668.0,31.0
2021-09-11T07:14:00Z,00000200,01000000,0000.58,0000.60,0000.23,-000.38,0000.12,0000.01,0000.18,0000.18,-000.08,18.7,25.4,,00.0,0668.0,31.1
2021-09-11T07:15:00Z,00000200,01000000,0000.15,0000.81,0000.12,0000.02,0000.50,-000.22,0000.49,0000.29,0000.31,18.8,25.4,,00.0,0668.1,31.0
2021-09-11T07:16:00Z,00000200,01000000,0000.52,0000.84,0000.43,0000.53,0000.28,0000.01,-000.02,0000.38,0000.33,18.9,25.5,,00.0,0668.0,31.0
2021-09-11T07:17:00Z,00000200,01000000,0000.89,0000.43,0000.03,0000.27,0000.12,-000.15,0000.45,0000.01,0000.17,19.0,25.5,,00.0,0668.1,31.1
2021-09-11T07:18:00Z,00000200,01000000,0001.21,0000.37,0000.32,-000.15,0000.41,0000.09,0000.45,0000.67,0000.22,19.1,25.5,,00.0,0668.1,31.1
2021-09-11T07:19:00Z,00000200,01000000,0000.49,0000.26,0000.26,-000.08,0000.03,0000.35,-000.07,-000.37,-000.11,19.1,25.6,,00.0,0668.1,31.1
2021-09-11T07:20:00Z,00000200,01000000,0000.37,0000.44,0000.41,-000.18,0000.34,0000.02,-000.44,0000.43,0000.09,19.2,25.6,,00.0,0668.2,31.1
2021-09-11T07:21:00Z,00000200,01000000,0000.49,0000.52,0000.47,0000.03,-000.04,0000.13,0000.10,-000.62,0000.05,19.3,25.6,,00.0,0668.2,31.1
2021-09-11T07:22:00Z,00000200,01000000,0000.07,0000.48,0000.17,-000.07,0000.23,0000.32,-000.04,-000.04,-000.07,19.2,25.6,,00.0,0668.2,31.1
2021-09-11T07:23:00Z,00000200,01000000,0000.70,0000.46,0000.35,0000.13,0000.26,-000.00,0000.12,0000.02,-000.00,19.1,25.6,,00.0,0668.1,31.1
2021-09-11T07:24:00Z,00000200,01000000,0000.04,0000.49,0000.17,0000.17,0000.34,0000.03,-000.23,-000.01,-000.13,19.1,25.6,,00.0,0668.1,31.0
2021-09-11T07:25:00Z,00000200,01000000,-000.31,0000.67,0000.15,0000.53,0000.27,-000.31,0000.30,-000.31,-000.18,19.0,25.5,,00.0,0668.2,31.0
2021-09-11T07:26:00Z,00000200,01000000,0000.93,0000.41,0000.18,0000.28,0000.16,-000.40,-000.24,0000.09,0000.17,18.9,25.5,,00.0,0668.2,31.0
2021-09-11T07:27:00Z,00000200,01000000,0001.02,0000.80,0000.19,0000.30,0000.08,-000.21,0000.19,0000.42,-000.03,18.9,25.4,,00.0,0668.2,31.0
2021-09-11T07:28:00Z,00000200,01000000,0000.71,0000.45,0000.39,-000.06,0000.23,-000.11,0000.54,0000.32,0000.44,18.9,25.4,,00.0,0668.2,31.0
2021-09-11T07:29:00Z,00000200,01000000,0000.39,0000.71,0000.18,-000.25,0000.39,0000.02,-000.02,0000.34,0000.25,18.9,25.5,,00.0,0668.2,31.1
2021-09-11T07:30:00Z,00000200,01000000,0000.83,0000.75,0000.44,0000.15,0000.38,-000.17,0000.25,-000.19,-000.32,19.0,25.5,,00.0,0668.2,31.1
2021-09-11T07:31:00Z,00000200,01000000,0000.53,0000.59,0000.38,0000.19,0000.02,-000.20,-000.10,0000.36,0000.38,19.1,25.6,,00.0,0668.2,31.1
2021-09-11T07:32:00Z,00000200,01000000,0000.15,0000.61,0000.56,0000.11,-000.03,0000.26,-000.10,0000.18,0000.25,19.2,25.6,,00.0,0668.3,31.1
2021-09-11T07:33:00Z,00000200,01000000,0000.67,0000.40,0000.20,-000.25,0000.17,0000.06,0000.15,-000.19,-000.16,19.2,25.7,,00.0,0668.3,31.1
2021-09-11T07:34:00Z,00000200,01000000,0000.23,0000.46,0000.22,0000.81,0000.28,-000.39,-000.07,-000.15,-000.12,19.2,25.6,,00.0,0668.3,31.1
2021-09-11T07:35:00Z,00000200,01000000,-000.09,0000.27,0000.40,0000.39,0000.28,0000.22,-000.12,0000.05,-000.05,19.1,25.6,,00.0,0668.3,31.1
2021-09-11T07:36:00Z,00000200,01000000,-000.01,0000.38,0000.22,0000.20,-000.02,-000.19,-000.28,-000.34,-000.18,19.1,25.6,,00.0,0668.3,31.0
2021-09-11T07:37:00Z,00000200,01000000,0000.36,0000.68,0000.08,-000.34,0000.30,-000.07,-000.07,-000.21,-000.22,19.0,25.5,,00.0,0668.3,31.0
2021-09-11T07:38:00Z,00000200,01000000,0000.32,0000.79,0000.34,-000.03,0000.21,0000.06,-000.08,0000.03,-000.11,18.9,25.5,,00.0,0668.3,31.0
2021-09-11T07:39:00Z,00000200,01000000,0000.40,0000.34,0000.14,0000.68,0000.16,-000.03,0000.01,-000.12,0000.02,18.8,25.4,,00.0,0668.3,31.0
2021-09-11T07:40:00Z,00000200,01000000,-000.33,0000.46,0000.31,-000.03,0000.47,0000.12,-000.04,-000.19,-000.33,18.7,25.4,,00.0,0668.3,31.0
2021-09-11T07:41:00Z,00000200,01000000,0000.90,0000.76,0000.32,-000.03,0000.09,-000.06,0000.23,0000.19,0000.30,18.6,25.3,,00.0,0668.3,31.0
2021-09-11T07:42:00Z,00000200,01000000,-000.27,0000.48,0000.32,0000.61,0000.17,-000.09,0000.22,0000.82,0000.61,18.6,25.3,,00.0,0668.3,31.0
2021-09-11T07:43:00Z,00000200,01000000,0000.24,0000.42,0000.26,0000.75,0000.06,-000.21,0000.56,-000.44,0000.00,18.7,25.3,,00.0,0668.3,31.0
2021-09-11T07:44:00Z,00000200,01000000,-000.10,0000.37,0000.09,-000.19,0000.28,-000.08,-000.35,0000.61,0000.04,18.7,25.3,,00.0,0668.3,31.0
2021-09-11T07:45:00Z,00000200,01000000,0000.12,0000.52,0000.25,-000.38,0000.37,0000.04,0000.24,0000.28,0000.18,18.8,25.4,,00.0,0668.3,31.0
2021-09-11T07:46:00Z,00000200,01000000,-000.29,0000.34,0000.84,-000.24,0000.24,-000.07,0000.23,0000.01,0000.20,18.9,25.4,,00.0,0668.4,31.0
2021-09-11T07:47:00Z,00000200,01000000,0000.70,0000.32,0000.49,0000.28,0000.21,-000.10,-000.05,0000.08,0000.05,19.0,25.4,,00.0,0668.4,31.1
2021-09-11T07:48:00Z,00000200,01000000,0000.48,0000.35,0000.24,-000.47,0000.14,-000.17,0000.23,0000.02,0000.01,19.0,25.5,,00.0,0668.4,31.1
2021-09-11T07:49:00Z,00000200,01000000,0000.63,0000.55,0000.56,0000.24,0000.08,0000.19,0000.09,0000.09,-000.03,19.1,25.5,,00.0,0668.4,31.1
2021-09-11T07:50:00Z,00000200,01000000,-000.15,0000.60,0000.31,0000.15,0000.37,0000.01,-000.22,-000.24,0000.28,19.1,25.6,,00.0,0668.3,31.1
2021-09-11T07:51:00Z,00000200,01000000,-000.04,0000.18,0000.65,0000.20,0000.15,-000.25,-000.25,0000.05,-000.33,19.1,25.5,,00.0,0668.3,31.1
2021-09-11T07:52:00Z,00000200,01000000,0000.69,0000.35,0000.45,-000.16,0000.10,0000.02,0000.12,-000.08,-000.03,19.0,25.5,,00.0,0668.3,31.0
2021-09-11T07:53:00Z,00000200,01000000,0000.53,0000.20,0000.32,0000.08,0000.44,-000.08,-000.06,-000.54,-000.31,18.9,25.4,,00.0,0668.3,31.0
2021-09-11T07:54:00Z,00000200,01000000,0000.84,0000.22,0000.36,0000.56,0000.49,-000.09,-000.03,-000.07,0000.03,18.8,25.4,,00.0,0668.3,31.0
2021-09-11T07:55:00Z,00000200,01000000,-000.14,0000.57,0000.42,0000.50,0000.04,-000.16,-000.08,-000.15,-000.10,18.7,25.4,,00.0,0668.3,31.0
2021-09-11T07:56:00Z,00000200,01000000,0000.36,0000.62,0000.13,-000.05,0000.39,-000.02,0000.33,0000.49,0000.19,18.7,25.3,,00.0,0668.3,31.0
2021-09-11T07:57:00Z,00000200,41000000,,,,,,,0001.18,0001.53,0000.98,18.7,25.3,,00.0,0668.4,31.0
2021-09-11T07:58:00Z,00000200,61000000,,,,,,,-000.46,-000.67,-000.28,18.3,25.4,,00.0,0667.4,31.0
2021-09-11T07:59:00Z,00000200,21000000,,,,,,,-000.25,0000.11,0000.02,18.3,25.5,,00.0,0667.3,31.0
